Home   Weather   Latiano   Past weeks
Flag for Italy

Past Weather in Latiano, Italy — Yesterday and Last 2 Weeks

Now
73 °F

Passing clouds.


Feels Like: 73 °F
Forecast: 74 / 61 °F
Wind: 5 mph from Southwest

Location: Brindisi Airport

Current Time: Oct 16, 2019 at 8:14:14 pm

Latest Report: Oct 16, 2019 at 7:20 pm


Visibility: N/A

Pressure: 30.01 "Hg

Humidity: 83%

Dew Point: 68 °F

Location of LatianoLocation

Past Weather in Latiano — Graph

°F

Latiano Temperature Yesterday

Maximum temperature yesterday: 73 °F (at 1:50 pm)
Minimum temperature yesterday: 57 °F (at 4:20 am)
Average temperature yesterday: 66 °F

High & Low Weather Summary for the Past Weeks

 TemperatureHumidityPressure
High82 °F (Oct 2, 11:50 am)100% (Oct 11, 3:50 am)30.24 "Hg (Oct 11, 3:50 am)
Low54 °F (Oct 5, 6:20 am)44% (Oct 5, 12:20 pm)29.65 "Hg (Oct 3, 7:50 am)
Average68 °F75%29.97 "Hg
* Reported Oct 1 6:20 pm — Oct 16 6:50 pm, Latiano. Weather by CustomWeather, © 2019

Note: Actual official high and low records may vary slightly from our data, if they occured in-between our weather recording intervals... More about our weather records

Advertising

Latiano Weather History for the Previous 24 Hours

Scroll right to see more
 ConditionsComfort  
Time TempWeatherWind HumidityBarometerVisibility
6:50 pm
Wed, Oct 16
73 °FPassing clouds.5 mph83%30.01 "HgN/A
6:20 pm73 °FPassing clouds.7 mph83%30.01 "HgN/A
5:50 pm73 °FPassing clouds.6 mph83%30.01 "HgN/A
5:20 pm73 °FPassing clouds.5 mph83%29.98 "HgN/A
4:50 pm73 °FPassing clouds.7 mph83%29.98 "HgN/A
4:20 pm73 °FPassing clouds.7 mph78%29.98 "HgN/A
3:50 pm73 °FPassing clouds.7 mph83%30.01 "HgN/A
3:20 pm73 °FThundershowers. Scattered clouds.9 mph78%30.01 "Hg6 mi
2:50 pm75 °FScattered clouds.9 mph78%30.01 "HgN/A
2:20 pm75 °FScattered clouds.10 mph78%30.01 "HgN/A
1:50 pm75 °FScattered clouds.9 mph83%30.01 "HgN/A
1:20 pm75 °FScattered clouds.10 mph83%30.01 "HgN/A
12:50 pm75 °FScattered clouds.9 mph83%30.01 "HgN/A
12:20 pm75 °FScattered clouds.9 mph78%30.04 "HgN/A
11:50 am75 °FPassing clouds.8 mph83%30.04 "HgN/A
11:20 am75 °FPassing clouds.6 mph83%30.04 "HgN/A
10:50 am77 °FPassing clouds.5 mph74%30.04 "HgN/A
10:20 am75 °FPassing clouds.6 mph78%30.04 "HgN/A
9:50 am72 °FClear.3 mph88%30.04 "Hg5 mi
9:20 am68 °FClear.5 mph94%30.04 "Hg4 mi
8:50 am68 °FClear.5 mph94%30.04 "Hg4 mi
8:20 am66 °FFog.5 mph94%30.01 "Hg3 mi
7:50 am64 °FFog.6 mph100%30.01 "Hg2 mi
7:20 am64 °FFog.6 mph94%30.01 "Hg2 mi
6:50 am66 °FFog.8 mph94%29.98 "Hg3 mi
6:20 am64 °FClear.6 mph94%30.01 "Hg5 mi
5:50 am64 °FClear.6 mph94%30.01 "Hg5 mi
5:20 am64 °FClear.6 mph94%30.01 "Hg5 mi
4:50 am64 °FClear.7 mph94%30.01 "Hg10 mi
3:50 am64 °FClear.6 mph94%30.01 "Hg10 mi
3:20 am64 °FClear.7 mph94%30.01 "Hg10 mi
2:50 am64 °FClear.7 mph94%30.01 "Hg5 mi
2:20 am66 °FClear.6 mph94%30.04 "Hg5 mi
1:50 am66 °FClear.6 mph94%30.04 "Hg5 mi
1:20 am66 °FClear.6 mph94%30.04 "Hg5 mi
12:50 am66 °FClear.5 mph94%30.04 "Hg5 mi
12:20 am64 °FClear.3 mph94%30.04 "Hg5 mi
11:50 pm
Tue, Oct 15
66 °FClear.5 mph88%30.04 "Hg5 mi
11:20 pm66 °FClear.5 mph94%30.04 "Hg5 mi
10:50 pm66 °FClear.5 mph94%30.04 "Hg10 mi
10:20 pm66 °FPassing clouds.3 mph88%30.04 "HgN/A
9:50 pm66 °FClear.2 mph88%30.04 "Hg10 mi
9:20 pm68 °FClear.3 mph83%30.04 "Hg10 mi
8:50 pm68 °FClear.6 mph83%30.04 "Hg10 mi
8:20 pm68 °FClear.6 mph83%30.04 "Hg10 mi
Weather by CustomWeather, © 2019

See weather overview